When you browse on this site, cookies collect data to enhance your experience and personalize the content and advertising you see.
Visit our Privacy Policy to learn more. By continuing to use the site, you agree to this use of cookies and data.
  • In Hungary
  • List of Countries
  • For 7 days
  • Water Temperature
  • Satellite Maps
  • Weather Map
  • News
  • Weather Widgets
  • user-avatar
    Login

    Hourly Weather Chinandega

    Today, 21 March, Thursday

    Time Temperature Precipitation Wind Pressure Humidity
    00:00 +28°C° 0 mm 1 mps 756 mmHg 59%
    01:00 +27°C° 0 mm 1 mps 756 mmHg 60%
    02:00 +27°C° 0 mm 2 mps 756 mmHg 61%
    03:00 +27°C° 0 mm 2 mps 755 mmHg 62%
    04:00 +26°C° 0 mm 2 mps 756 mmHg 63%
    05:00 +26°C° 0 mm 2 mps 756 mmHg 63%
    06:00 +26°C° 0 mm 2 mps 756 mmHg 66%
    07:00 +28°C° 0 mm 2 mps 757 mmHg 57%
    08:00 +31°C° 0 mm 2 mps 757 mmHg 49%
    09:00 +34°C° 0 mm 3 mps 757 mmHg 41%
    10:00 +37°C° 0 mm 3 mps 757 mmHg 34%
    11:00 +39°C° 0 mm 3 mps 756 mmHg 28%
    12:00 +42°C° 0 mm 2 mps 755 mmHg 22%
    13:00 +42°C° 0 mm 3 mps 754 mmHg 22%
    14:00 +42°C° 0 mm 3 mps 754 mmHg 23%
    15:00 +42°C° 0 mm 3 mps 753 mmHg 23%
    16:00 +38°C° 0 mm 3 mps 753 mmHg 31%
    17:00 +36°C° 0 mm 3 mps 753 mmHg 39%
    18:00 +32°C° 0 mm 2 mps 753 mmHg 47%
    19:00 +32°C° 0 mm 2 mps 754 mmHg 49%
    20:00 +32°C° 0 mm 1 mps 755 mmHg 50%
    21:00 +31°C° 0 mm 1 mps 756 mmHg 51%
    22:00 +30°C° 0 mm 1 mps 756 mmHg 53%
    23:00 +30°C° 0 mm 1 mps 756 mmHg 54%

    Tomorrow, 22 March, Friday

    Time Temperature Precipitation Wind Pressure Humidity
    00:00 +29°C° 0 mm 2 mps 756 mmHg 56%
    01:00 +28°C° 0 mm 2 mps 756 mmHg 58%
    02:00 +28°C° 0 mm 2 mps 756 mmHg 59%
    03:00 +27°C° 0 mm 2 mps 755 mmHg 61%
    04:00 +27°C° 0 mm 2 mps 756 mmHg 63%
    05:00 +26°C° 0 mm 2 mps 756 mmHg 65%
    06:00 +25°C° 0 mm 2 mps 756 mmHg 67%
    07:00 +28°C° 0 mm 2 mps 757 mmHg 57%
    08:00 +30°C° 0 mm 3 mps 757 mmHg 47%
    09:00 +34°C° 0 mm 3 mps 758 mmHg 37%
    10:00 +36°C° 0 mm 3 mps 757 mmHg 30%
    11:00 +39°C° 0 mm 3 mps 757 mmHg 22%
    12:00 +42°C° 0 mm 3 mps 756 mmHg 15%
    13:00 +43°C° 0 mm 3 mps 755 mmHg 15%
    14:00 +43°C° 0 mm 3 mps 754 mmHg 15%
    15:00 +43°C° 0 mm 3 mps 753 mmHg 15%
    16:00 +39°C° 0 mm 3 mps 753 mmHg 22%
    17:00 +36°C° 0 mm 3 mps 753 mmHg 29%
    18:00 +34°C° 0 mm 3 mps 754 mmHg 36%
    19:00 +32°C° 0 mm 2 mps 754 mmHg 39%
    20:00 +31°C° 0 mm 2 mps 755 mmHg 42%
    21:00 +30°C° 0 mm 1 mps 756 mmHg 45%
    22:00 +29°C° 0 mm 1 mps 756 mmHg 48%
    23:00 +29°C° 0 mm 2 mps 757 mmHg 50%

    Day after tomorrow, 23 March, Saturday

    Time Temperature Precipitation Wind Pressure Humidity
    00:00 +28°C° 0 mm 2 mps 757 mmHg 52%
    01:00 +28°C° 0 mm 2 mps 757 mmHg 54%
    02:00 +27°C° 0 mm 2 mps 756 mmHg 56%
    03:00 +27°C° 0 mm 2 mps 756 mmHg 58%
    04:00 +26°C° 0 mm 2 mps 756 mmHg 60%
    05:00 +26°C° 0 mm 2 mps 756 mmHg 63%
    06:00 +25°C° 0 mm 2 mps 757 mmHg 65%
    07:00 +28°C° 0 mm 2 mps 757 mmHg 56%
    08:00 +30°C° 0 mm 2 mps 758 mmHg 48%
    09:00 +34°C° 0 mm 2 mps 758 mmHg 39%
    10:00 +37°C° 0 mm 2 mps 758 mmHg 32%
    11:00 +40°C° 0 mm 2 mps 757 mmHg 26%
    12:00 +43°C° 0 mm 2 mps 756 mmHg 19%
    13:00 +42°C° 0 mm 2 mps 755 mmHg 20%
    14:00 +43°C° 0 mm 3 mps 754 mmHg 21%
    15:00 +42°C° 0 mm 3 mps 753 mmHg 22%
    16:00 +39°C° 0 mm 3 mps 753 mmHg 31%
    17:00 +36°C° 0 mm 3 mps 753 mmHg 40%
    18:00 +33°C° 0 mm 3 mps 754 mmHg 49%
    19:00 +31°C° 0 mm 2 mps 754 mmHg 54%
    20:00 +29°C° 0 mm 1 mps 755 mmHg 60%
    21:00 +28°C° 0 mm 1 mps 756 mmHg 66%
    22:00 +28°C° 0 mm 1 mps 757 mmHg 66%
    23:00 +28°C° 0 mm 1 mps 757 mmHg 65%

    24 March, Sunday

    Time Temperature Precipitation Wind Pressure Humidity
    00:00 +28°C° 0 mm 2 mps 757 mmHg 64%
    01:00 +28°C° 0 mm 2 mps 757 mmHg 63%
    02:00 +28°C° 0 mm 3 mps 757 mmHg 63%
    03:00 +27°C° 0 mm 3 mps 756 mmHg 62%
    04:00 +27°C° 0 mm 3 mps 757 mmHg 62%
    05:00 +26°C° 0 mm 3 mps 757 mmHg 63%
    06:00 +26°C° 0 mm 3 mps 757 mmHg 63%
    07:00 +29°C° 0 mm 3 mps 757 mmHg 55%
    08:00 +31°C° 0 mm 3 mps 758 mmHg 47%
    09:00 +35°C° 0 mm 3 mps 758 mmHg 39%
    10:00 +37°C° 0 mm 3 mps 757 mmHg 33%
    11:00 +40°C° 0 mm 2 mps 756 mmHg 27%
    12:00 +42°C° 0 mm 2 mps 756 mmHg 21%
    13:00 +43°C° 0 mm 3 mps 755 mmHg 21%
    14:00 +43°C° 0 mm 3 mps 753 mmHg 22%
    15:00 +43°C° 0 mm 4 mps 752 mmHg 22%
    16:00 +40°C° 0 mm 4 mps 753 mmHg 32%
    17:00 +35°C° 0 mm 4 mps 753 mmHg 42%
    18:00 +32°C° 0 mm 4 mps 753 mmHg 52%
    19:00 +30°C° 0 mm 3 mps 754 mmHg 58%
    20:00 +29°C° 0 mm 2 mps 755 mmHg 64%
    21:00 +28°C° 0 mm 1 mps 756 mmHg 69%
    22:00 +28°C° 0 mm 1 mps 756 mmHg 69%
    23:00 +28°C° 0 mm 1 mps 756 mmHg 68%

    25 March, Monday

    Time Temperature Precipitation Wind Pressure Humidity
    00:00 +28°C° 0 mm 1 mps 756 mmHg 68%
    01:00 +28°C° 0 mm 1 mps 756 mmHg 67%
    02:00 +27°C° 0 mm 2 mps 755 mmHg 65%
    03:00 +27°C° 0 mm 2 mps 755 mmHg 64%
    04:00 +27°C° 0 mm 2 mps 755 mmHg 66%
    05:00 +26°C° 0 mm 2 mps 756 mmHg 67%
    06:00 +26°C° 0 mm 2 mps 756 mmHg 69%
    07:00 +29°C° 0 mm 2 mps 756 mmHg 59%
    08:00 +31°C° 0 mm 3 mps 757 mmHg 49%
    09:00 +35°C° 0 mm 3 mps 757 mmHg 39%
    10:00 +37°C° 0 mm 3 mps 756 mmHg 33%
    11:00 +39°C° 0 mm 3 mps 755 mmHg 27%
    12:00 +41°C° 0 mm 2 mps 755 mmHg 20%
    13:00 +42°C° 0 mm 3 mps 754 mmHg 21%
    14:00 +42°C° 0 mm 3 mps 753 mmHg 22%
    15:00 +42°C° 0 mm 4 mps 752 mmHg 23%
    16:00 +38°C° 0 mm 3 mps 752 mmHg 31%
    17:00 +36°C° 0 mm 3 mps 752 mmHg 39%
    18:00 +33°C° 0 mm 3 mps 752 mmHg 47%
    19:00 +31°C° 0 mm 2 mps 753 mmHg 51%
    20:00 +30°C° 0 mm 1 mps 754 mmHg 56%
    21:00 +26°C° 0 mm 0 mps 755 mmHg 60%
    22:00 +28°C° 0 mm 1 mps 755 mmHg 59%
    23:00 +28°C° 0 mm 1 mps 755 mmHg 59%

    26 March, Tuesday

    Time Temperature Precipitation Wind Pressure Humidity
    00:00 +28°C° 0 mm 1 mps 755 mmHg 58%
    01:00 +28°C° 0 mm 2 mps 755 mmHg 59%
    02:00 +27°C° 0 mm 2 mps 755 mmHg 61%
    03:00 +27°C° 0 mm 3 mps 755 mmHg 62%
    04:00 +26°C° 0 mm 2 mps 755 mmHg 63%
    05:00 +26°C° 0 mm 2 mps 755 mmHg 65%
    06:00 +26°C° 0 mm 2 mps 756 mmHg 67%
    07:00 +28°C° 0 mm 3 mps 756 mmHg 56%
    08:00 +31°C° 0 mm 3 mps 756 mmHg 46%
    09:00 +35°C° 0 mm 3 mps 757 mmHg 36%
    10:00 +37°C° 0 mm 3 mps 756 mmHg 30%
    11:00 +40°C° 0 mm 3 mps 755 mmHg 24%
    12:00 +43°C° 0 mm 3 mps 754 mmHg 18%
    13:00 +43°C° 0 mm 3 mps 753 mmHg 20%
    14:00 +42°C° 0 mm 3 mps 752 mmHg 22%
    15:00 +41°C° 0 mm 4 mps 751 mmHg 24%
    16:00 +38°C° 0 mm 3 mps 752 mmHg 31%
    17:00 +35°C° 0 mm 3 mps 752 mmHg 39%
    18:00 +32°C° 0 mm 2 mps 753 mmHg 46%
    19:00 +31°C° 0 mm 2 mps 753 mmHg 48%
    20:00 +31°C° 0 mm 1 mps 754 mmHg 50%
    21:00 +28°C° 0 mm 0 mps 755 mmHg 51%
    22:00 +30°C° 0 mm 1 mps 755 mmHg 52%
    23:00 +30°C° 0 mm 1 mps 755 mmHg 53%
    Show more